Linden, NJ

1:00 AM EDT on August 24, 2017 (GMT -0400)
Linden

Weather History for KLDJ - January, 2014

Change the Weather History Date:

Sunday, January 26, 2014

  Actual Average (KEWR) Record (KEWR)
Temperature  
Mean Temperature 22 °F -  
Max Temperature 28 °F 40 °F 74 °F (1950)
Min Temperature 17 °F 26 °F 4 °F (1994)
Degree Days  
Heating Degree Days 42    
Moisture  
Dew Point 7 °F    
Average Humidity 53    
Maximum Humidity 78    
Minimum Humidity 37    
Precipitation  
Precipitation 0.00 in - - ()
Sea Level Pressure  
Sea Level Pressure 29.83 in    
Wind  
Wind Speed 10 mph (West)    
Max Wind Speed 24 mph    
Max Gust Speed 31 mph    
Visibility 10 miles    
Events Snow    
Averages and records for this station are not official NWS values.
T = Trace of Precipitation, MM = Missing Value Source: NWS Daily Summary

Daily Weather History Graph

Daily Weather History Graph

Search for Another Location

Airport or City:

Trip Planner

Search our weather history database for the weather conditions in past years. The results will help you decide how hot, cold, wet, or windy it might be!

Date:

Astronomy

Jan. 26, 2014 Rise Set
Actual Time 7:12 AM EST 5:07 PM EST
Civil Twilight 6:42 AM EST 5:36 PM EST
Nautical Twilight 6:09 AM EST 6:09 PM EST
Astronomical Twilight 5:37 AM EST 6:42 PM EST
Moon 2:46 AM EST (1/26) 12:54 PM EST (1/26)
Length of Visible Light 10h 54m
Length of Day
9h 55m
Waning Crescent, 24% of the Moon is Illuminated
Jan 26
Waning Crescent
Jan 30
New
Feb 6
First Quarter
Feb 14
Full
Feb 22
Last Quarter

Hourly Weather History & Observations

Time (EST) Temp. Windchill Dew Point Humidity Pressure Visibility Wind Dir Wind Speed Gust Speed Precip Events Conditions
12:15 AM 22.1 °F 12.0 °F 16.2 °F 78% 29.51 in 10.0 mi West 9.2 mph - N/A   Scattered Clouds
12:35 AM 22.5 °F 13.2 °F 15.4 °F 74% 29.53 in 10.0 mi West 8.1 mph - N/A   Scattered Clouds
12:55 AM 23.0 °F 12.4 °F 15.4 °F 73% 29.54 in 10.0 mi West 10.4 mph 17.3 mph N/A   Clear
1:15 AM 23.0 °F 11.1 °F 16.0 °F 74% 29.56 in 10.0 mi WNW 12.7 mph - N/A   Scattered Clouds
1:35 AM 21.9 °F 10.4 °F 16.0 °F 78% 29.58 in 10.0 mi NW 11.5 mph - N/A   Scattered Clouds
1:55 AM 22.8 °F 12.2 °F 16.5 °F 77% 29.60 in 10.0 mi NW 10.4 mph - N/A   Clear
2:15 AM 22.1 °F 12.0 °F 14.7 °F 73% 29.62 in 10.0 mi WNW 9.2 mph - N/A   Clear
2:35 AM 22.3 °F 12.2 °F 12.9 °F 67% 29.65 in 10.0 mi WNW 9.2 mph - N/A   Clear
2:55 AM 21.6 °F 9.9 °F 11.5 °F 65% 29.67 in 10.0 mi WNW 11.5 mph 16.1 mph N/A   Clear
3:15 AM 22.1 °F 5.7 °F 6.4 °F 51% 29.69 in 7.0 mi WNW 24.2 mph 28.8 mph N/A   Clear
3:35 AM 21.7 °F 6.7 °F 3.9 °F 46% 29.71 in 7.0 mi NW 19.6 mph 31.1 mph N/A   Clear
3:55 AM 21.2 °F 6.4 °F 2.1 °F 44% 29.72 in 10.0 mi NW 18.4 mph 29.9 mph N/A   Clear
4:15 AM 20.8 °F 5.5 °F 1.4 °F 43% 29.73 in 10.0 mi NW 19.6 mph 29.9 mph N/A   Clear
4:35 AM 20.5 °F 5.9 °F 0.5 °F 42% 29.75 in 10.0 mi NW 17.3 mph 24.2 mph N/A   Clear
4:55 AM 20.3 °F 6.1 °F -0.4 °F 40% 29.76 in 10.0 mi NW 16.1 mph 26.5 mph N/A   Scattered Clouds
5:15 AM 19.2 °F 7.7 °F 0.3 °F 44% 29.77 in 10.0 mi WNW 10.4 mph 17.3 mph N/A   Clear
5:35 AM 19.2 °F 6.4 °F 0.1 °F 43% 29.78 in 10.0 mi WNW 12.7 mph 18.4 mph N/A   Clear
5:55 AM 19.0 °F 6.1 °F -1.1 °F 41% 29.79 in 10.0 mi WNW 12.7 mph 21.9 mph N/A   Clear
6:15 AM 18.3 °F 5.9 °F -0.0 °F 45% 29.81 in 10.0 mi WNW 11.5 mph - N/A   Clear
6:35 AM 18.3 °F 5.9 °F 1.8 °F 49% 29.83 in 10.0 mi WNW 11.5 mph - N/A   Clear
6:55 AM 17.6 °F 5.7 °F 3.6 °F 54% 29.84 in 10.0 mi WNW 10.4 mph - N/A   Clear
7:15 AM 18.0 °F 5.4 °F 2.5 °F 51% 29.86 in 10.0 mi WNW 11.5 mph 24.2 mph N/A   Clear
7:35 AM 17.4 °F 4.7 °F 0.3 °F 47% 29.88 in 10.0 mi WNW 11.5 mph - N/A   Clear
7:55 AM 18.5 °F 6.1 °F -0.2 °F 44% 29.89 in 10.0 mi WNW 11.5 mph 20.7 mph N/A   Clear
8:15 AM 18.3 °F 5.9 °F 0.1 °F 45% 29.90 in 10.0 mi WNW 11.5 mph - N/A   Clear
8:35 AM 19.0 °F 10.0 °F 0.1 °F 44% 29.92 in 10.0 mi West 6.9 mph - N/A   Clear
8:55 AM 19.0 °F 5.6 °F -0.0 °F 43% 29.92 in 10.0 mi West 13.8 mph 20.7 mph N/A   Clear
9:15 AM 19.4 °F 6.6 °F -1.5 °F 40% 29.93 in 10.0 mi WNW 12.7 mph 23.0 mph N/A   Clear
9:35 AM 19.4 °F 7.9 °F -1.1 °F 41% 29.93 in 10.0 mi West 10.4 mph 21.9 mph N/A   Clear
9:55 AM 20.3 °F 6.6 °F -0.9 °F 39% 29.94 in 10.0 mi WNW 15.0 mph 24.2 mph N/A   Clear
10:15 AM 20.3 °F 6.6 °F -1.5 °F 39% 29.95 in 10.0 mi West 15.0 mph 31.1 mph N/A   Clear
10:35 AM 20.8 °F 8.4 °F -0.6 °F 39% 29.95 in 10.0 mi West 12.7 mph 27.6 mph N/A   Clear
10:55 AM 21.7 °F 9.0 °F -1.3 °F 37% 29.94 in 10.0 mi West 13.8 mph 21.9 mph N/A   Clear
11:15 AM 21.9 °F 9.8 °F -0.4 °F 38% 29.93 in 10.0 mi West 12.7 mph 20.7 mph N/A   Clear
11:35 AM 21.9 °F 8.7 °F -0.2 °F 38% 29.91 in 10.0 mi West 15.0 mph 24.2 mph N/A   Clear
11:55 AM 22.5 °F 11.7 °F 1.4 °F 40% 29.89 in 10.0 mi WNW 10.4 mph 18.4 mph N/A   Clear
12:15 PM 21.9 °F 10.4 °F 1.4 °F 41% 29.90 in 10.0 mi WNW 11.5 mph 23.0 mph N/A   Clear
12:35 PM 22.8 °F 10.9 °F 1.6 °F 40% 29.88 in 10.0 mi West 12.7 mph 17.3 mph N/A   Clear
12:55 PM 22.8 °F 10.9 °F 1.6 °F 40% 29.87 in 10.0 mi West 12.7 mph 18.4 mph N/A   Clear
1:15 PM 23.0 °F 11.1 °F 2.5 °F 41% 29.89 in 10.0 mi West 12.7 mph - N/A   Scattered Clouds
1:35 PM 23.0 °F 11.7 °F 3.4 °F 43% 29.89 in 10.0 mi West 11.5 mph - N/A   Mostly Cloudy
1:55 PM 23.0 °F 11.7 °F 4.5 °F 45% 29.88 in 10.0 mi West 11.5 mph - N/A   Overcast
2:15 PM 23.2 °F 15.0 °F 5.0 °F 46% 29.90 in 10.0 mi West 6.9 mph - N/A   Overcast
2:35 PM 23.4 °F 11.6 °F 5.4 °F 46% 29.90 in 10.0 mi WNW 12.7 mph - N/A   Overcast
2:55 PM 23.4 °F 14.3 °F 7.2 °F 50% 29.90 in 10.0 mi WNW 8.1 mph - N/A   Overcast
3:15 PM 23.0 °F 13.9 °F 8.2 °F 53% 29.90 in 5.0 mi West 8.1 mph - N/A Snow Light Snow
3:35 PM 23.2 °F 18.7 °F 9.1 °F 55% 29.89 in 10.0 mi West 3.5 mph - N/A   Overcast
3:55 PM 23.9 °F 16.8 °F 9.0 °F 53% 29.89 in 5.0 mi West 5.8 mph - N/A   Haze
4:15 PM 23.9 °F - 9.0 °F 53% 29.89 in 10.0 mi Calm Calm - N/A   Scattered Clouds
4:35 PM 24.6 °F - 9.1 °F 52% 29.88 in 10.0 mi Calm Calm - N/A   Scattered Clouds
4:55 PM 23.7 °F 19.3 °F 9.1 °F 54% 29.87 in 10.0 mi SW 3.5 mph - N/A   Mostly Cloudy
5:15 PM 24.4 °F 20.1 °F 11.3 °F 57% 29.89 in 10.0 mi SW 3.5 mph - N/A   Mostly Cloudy
5:35 PM 24.4 °F - 12.2 °F 60% 29.88 in 10.0 mi Calm Calm - N/A   Overcast
5:55 PM 24.4 °F - 12.2 °F 60% 29.89 in 10.0 mi Calm Calm - N/A   Overcast
6:15 PM 24.8 °F 20.5 °F 12.2 °F 59% 29.89 in 10.0 mi SSW 3.5 mph - N/A   Overcast
6:35 PM 24.8 °F 20.5 °F 12.4 °F 59% 29.88 in 10.0 mi South 3.5 mph - N/A   Overcast
6:55 PM 25.7 °F 20.1 °F 12.2 °F 57% 29.88 in 10.0 mi SSW 4.6 mph - N/A   Overcast
7:15 PM 26.1 °F 21.9 °F 12.7 °F 57% 29.88 in 10.0 mi SSW 3.5 mph - N/A   Overcast
7:35 PM 26.4 °F 20.9 °F 13.1 °F 57% 29.88 in 10.0 mi SSW 4.6 mph - N/A Snow Light Snow
7:55 PM 26.6 °F - 13.5 °F 58% 29.88 in 10.0 mi Calm Calm - N/A   Overcast
8:15 PM 26.6 °F - 14.0 °F 59% 29.87 in 10.0 mi Calm Calm - N/A   Overcast
8:35 PM 26.6 °F - 13.8 °F 59% 29.87 in 10.0 mi Calm Calm - N/A   Overcast
8:55 PM 26.8 °F - 13.8 °F 58% 29.86 in 10.0 mi Calm Calm - N/A   Overcast
9:15 PM 27.0 °F - 14.2 °F 59% 29.87 in 10.0 mi Calm Calm - N/A   Overcast
9:35 PM 27.1 °F - 13.8 °F 57% 29.87 in 10.0 mi Calm Calm - N/A   Overcast
9:55 PM 27.3 °F - 13.8 °F 57% 29.86 in 10.0 mi Calm Calm - N/A   Overcast
10:15 PM 27.5 °F - 14.0 °F 57% 29.85 in 10.0 mi Calm Calm - N/A   Overcast
10:35 PM 27.3 °F - 16.2 °F 63% 29.84 in 10.0 mi Calm Calm - N/A   Overcast
10:55 PM 27.5 °F - 16.2 °F 62% 29.84 in 10.0 mi Calm Calm - N/A   Overcast
11:15 PM 28.2 °F - 16.5 °F 62% 29.83 in 10.0 mi Calm Calm - N/A   Overcast
11:35 PM 28.4 °F - 17.4 °F 63% 29.82 in 10.0 mi Calm Calm - N/A   Overcast
11:55 PM 27.9 °F - 18.3 °F 67% 29.80 in 10.0 mi Calm Calm - N/A   Overcast